Stations météo

réclame
Mon MeteoGroup
Vinga, Suède (2516): Température de l'air & dewpoint: 13.01.2018 23:00:00 - 19.01.2018 23:00:00 (CET)Vinga, Suède (2516): Vitesse du vent & gusts: 13.01.2018 23:00:00 - 19.01.2018 23:00:00 (CET)Vinga, Suède (2516): Direction du vent: 13.01.2018 23:00:00 - 19.01.2018 23:00:00 (CET)Vinga, Suède (2516): reduced air pressure: 13.01.2018 23:00:00 - 19.01.2018 23:00:00 (CET)Vinga, Suède (2516): visibility: 13.01.2018 23:00:00 - 19.01.2018 23:00:00 (CET)Vinga, Suède (2516): Quantités de précipitations: 13.01.2018 23:00:00 - 19.01.2018 23:00:00 (CET)
Date & Time tt [°C] td [°C] ff [km/h] ff [knt] fx [km/h] fx [knt] dd ppp [hPa] vv [km] rr [mm]
19.01.2018 23:00:00 -0,1 -1,4 28 15 35 19 ESE 1003,5 34 0,0
19.01.2018 22:00:00 0,2 -1,2 27 14 34 18 ESE 1003,6 37 0,0
19.01.2018 21:00:00 0,1 -1,3 25 14 31 17 ESE 1003,3 50 0,0
19.01.2018 20:00:00 0,6 -0,9 24 13 31 17 SE 1003,3 42 0,0
19.01.2018 19:00:00 0,5 -1,6 22 12 29 16 ESE 1003,0 50 0,0
19.01.2018 18:00:00 0,7 -2,5 23 13 29 16 SE 1002,9 50 0,0
19.01.2018 17:00:00 0,6 -2,8 23 13 31 17 SE 1003,1 50 0,0
19.01.2018 16:00:00 0,9 -2,7 24 13 33 18 SE 1002,8 50 0,0
19.01.2018 15:00:00 1,0 -2,4 26 14 31 17 SE 1002,3 50 0,0
19.01.2018 14:00:00 0,9 -3,0 24 13 29 16 SE 1002,2 50 0,0
19.01.2018 13:00:00 0,6 -2,6 22 12 28 15 SE 1002,1 50 0,0
19.01.2018 12:00:00 0,8 -2,1 20 11 24 13 SE 1002,1 50 0,0
19.01.2018 11:00:00 0,5 -1,7 16 9 23 12 SE 1001,8 50 0,0
19.01.2018 10:00:00 -0,1 -1,7 16 9 20 11 ESE 1001,4 50 0,0
19.01.2018 09:00:00 0,2 -1,2 14 8 18 10 ESE 1001,0 50 0,0
19.01.2018 08:00:00 0,1 -1,5 13 7 16 9 E 1000,3 50 0,0
19.01.2018 07:00:00 0,5 -1,3 11 6 15 8 ESE 999,6 50 0,0
19.01.2018 06:00:00 0,6 -1,3 12 6 17 9 ESE 999,2 50 0,0
19.01.2018 05:00:00 0,9 -1,5 13 7 16 9 SE 998,7 50 0,0
19.01.2018 04:00:00 0,2 -0,9 10 6 17 9 E 998,3 50 0,0
19.01.2018 03:00:00 0,0 -1,0 11 6 15 8 ENE 997,9 50 0,0
19.01.2018 02:00:00 0,2 -1,2 6 3 9 5 ENE 997,4 50 0,0
19.01.2018 01:00:00 0,1 -1,2 5 3 11 6 ENE 996,9 50 0,0
19.01.2018 00:00:00 0,6 -1,0 8 4 13 7 E 996,7 50 0,0
18.01.2018 23:00:00 0,7 -0,9 9 5 13 7 ESE 996,3 50 0,0
18.01.2018 22:00:00 0,7 -1,1 13 7 15 8 ESE 995,6 50 0,0
18.01.2018 21:00:00 0,7 -0,8 12 7 18 10 ESE 995,1 50 0,0
18.01.2018 20:00:00 0,7 -0,9 11 6 19 11 E 994,4 50 0,0
18.01.2018 19:00:00 0,8 -0,8 12 7 19 10 ENE 993,6 50 0,0
18.01.2018 18:00:00 0,6 -0,4 13 7 20 11 ENE 992,7 10 0,1
18.01.2018 17:00:00 0,4 -0,2 16 8 24 13 ENE 992,2 7 0,1
18.01.2018 16:00:00 0,4 0,0 16 8 26 14 E 991,4 8 0,4
18.01.2018 15:00:00 0,9 0,2 21 11 29 16 E 990,8 29 0,0
18.01.2018 14:00:00 1,0 0,0 23 12 34 19 E 990,2 50 0,0
18.01.2018 13:00:00 1,1 -0,2 24 13 33 18 ESE 990,0 50 0,0
18.01.2018 12:00:00 1,2 0,5 25 14 32 18 ESE 989,9 46 0,0
18.01.2018 11:00:00 1,1 0,7 26 14 33 18 ESE 989,9 11 0,1
18.01.2018 10:00:00 1,2 0,3 24 13 32 18 ESE 990,1 37 0,0
18.01.2018 09:00:00 1,1 0,2 24 13 30 16 ESE 990,3 50 0,0
18.01.2018 08:00:00 1,3 0,4 18 10 27 14 ESE 990,5 18 0,0
18.01.2018 07:00:00 1,5 0,5 11 6 28 15 SSE 991,1 22 0,0
18.01.2018 06:00:00 2,1 0,2 16 9 20 11 SSE 991,4 50 0,0
18.01.2018 05:00:00 1,8 0,0 6 3 19 10 S 991,8 50 0,0
18.01.2018 04:00:00 1,7 0,4 10 6 20 11 SW 992,2 41 0,0
18.01.2018 03:00:00 1,4 -0,5 6 3 11 6 WSW 992,4 50 0,0
18.01.2018 02:00:00 1,3 -0,3 7 4 20 11 W 992,3 50 0,0
18.01.2018 01:00:00 1,4 -0,2 20 11 26 14 WNW 992,1 50 0,0
18.01.2018 00:00:00 2,4 -0,2 14 7 22 12 WNW 992,1 50 0,0
17.01.2018 23:00:00 2,0 1,1 13 7 22 12 NW 991,7 50 0,0
17.01.2018 22:00:00 1,6 0,7 11 6 18 10 W 991,1 50 0,0
17.01.2018 21:00:00 1,9 0,9 11 6 15 8 W 990,6 21 0,0
17.01.2018 20:00:00 2,0 1,3 11 6 18 10 S 990,0 14 0,0
17.01.2018 19:00:00 1,5 0,6 5 3 19 10 S 989,9 16 0,0
17.01.2018 18:00:00 1,2 0,3 16 8 21 11 SSW 989,6 14 0,0
17.01.2018 17:00:00 1,3 0,3 9 5 22 12 SSW 988,9 23 0,0
17.01.2018 16:00:00 1,8 0,5 16 9 24 13 SW 988,4 28 0,0
17.01.2018 15:00:00 1,9 0,3 17 9 27 15 SSW 987,7 34 0,0
17.01.2018 14:00:00 1,8 0,5 18 10 24 13 SW 987,2 24 0,0
17.01.2018 13:00:00 1,8 0,5 20 11 30 16 SSW 987,0 28 0,0
17.01.2018 12:00:00 2,6 0,7 18 10 21 12 SSW 986,4 44 0,0
17.01.2018 11:00:00 2,5 0,9 16 9 19 10 SSW 985,8 33 0,0
17.01.2018 10:00:00 1,9 0,4 9 5 13 7 S 985,4 37 0,0
17.01.2018 09:00:00 1,8 0,2 10 5 23 12 SW 985,1 44 0,0
17.01.2018 08:00:00 1,9 0,6 19 10 22 12 S 984,3 48 0,0
17.01.2018 07:00:00 1,6 0,1 10 5 15 8 SSE 984,0 32 0,0
17.01.2018 06:00:00 1,6 0,6 6 3 15 8 SE 983,3 25 0,0
17.01.2018 05:00:00 1,3 0,6 7 4 14 8 SW 983,2 17 0,0
17.01.2018 04:00:00 1,1 0,7 6 4 14 8 S 983,0 12 0,0
17.01.2018 03:00:00 1,1 0,8 11 6 18 10 SSW 983,0 7 0,0
17.01.2018 02:00:00 1,0 0,7 12 6 23 12 SW 982,9 4,4 0,0
17.01.2018 01:00:00 1,2 0,8 17 9 28 15 SW 982,7 15 0,0
17.01.2018 00:00:00 1,6 0,9 12 7 24 13 SSW 982,6 24 0,0
16.01.2018 23:00:00 2,3 1,7 18 10 24 13 SW 982,3 16 0,0
16.01.2018 22:00:00 1,5 1,1 12 6 20 11 S 981,9 10 0,8
16.01.2018 21:00:00 1,6 0,9 18 10 24 13 SW 981,9 8 0,7
16.01.2018 20:00:00 2,6 1,7 18 10 24 13 SW 981,6 9 0,0
16.01.2018 19:00:00 2,9 1,9 23 13 30 16 SSW 981,4 20 0,0
16.01.2018 18:00:00 2,9 1,6 25 13 34 18 SSW 981,0 20 0,0
16.01.2018 17:00:00 3,2 2,0 31 17 37 20 SSW 981,0 19 0,0
16.01.2018 16:00:00 3,3 2,3 32 17 38 21 SSW 980,8 17 0,0
16.01.2018 15:00:00 3,5 2,6 32 17 39 21 SSW 980,4 11 0,0
16.01.2018 14:00:00 3,6 2,6 34 18 41 22 SSW 979,7 11 0,2
16.01.2018 13:00:00 3,3 2,3 35 19 48 26 SW 979,8 8 0,0
16.01.2018 12:00:00 3,8 2,8 39 21 55 30 SSW 979,5 8 0,0
16.01.2018 11:00:00 3,8 2,8 49 26 62 33 SSW 978,9 6 0,1
16.01.2018 10:00:00 4,0 2,7 52 28 64 35 SSW 978,3 8 0,0
16.01.2018 09:00:00 3,1 2,1 50 27 62 33 SSW 977,3 6 0,1
16.01.2018 08:00:00 2,9 2,6 53 29 86 47 S 975,6 2,0 1,0
16.01.2018 07:00:00 1,6 1,2 67 36 90 48 SE 975,9 2,5 0,2
16.01.2018 06:00:00 1,4 1,0 68 37 85 46 SE 976,9 3,3 0,3
16.01.2018 05:00:00 1,1 0,8 63 34 82 45 SE 979,0 2,4 0,2
16.01.2018 04:00:00 1,1 0,7 61 33 81 44 SE 980,9 3,4 0,4
16.01.2018 03:00:00 1,5 1,1 64 34 86 47 SE 982,4 3,1 0,1
16.01.2018 02:00:00 1,2 0,8 67 36 87 47 SSE 984,3 2,5 0,1
16.01.2018 01:00:00 1,1 0,8 67 36 84 46 SE 985,9 3,1 0,1
16.01.2018 00:00:00 1,0 0,9 64 35 81 44 SE 987,6 2,9 0,0
15.01.2018 23:00:00 1,0 0,9 65 35 85 46 SSE 989,3 2,3 0,3
15.01.2018 22:00:00 0,9 0,9 69 37 91 49 SSE 990,7 2,2 0,3
15.01.2018 21:00:00 0,9 0,8 68 37 90 49 SSE 992,2 2,6 0,1
15.01.2018 20:00:00 0,7 0,6 66 36 87 47 SSE 993,6 1,4 0,1
15.01.2018 19:00:00 0,3 0,2 69 37 87 47 SE 995,3 1,2 0,0
15.01.2018 18:00:00 0,2 -0,1 65 35 89 48 SSE 996,8 1,3 0,0
15.01.2018 17:00:00 0,2 -0,9 69 37 86 46 SE 998,1 2,0 0,0
15.01.2018 16:00:00 1,3 -1,1 64 35 90 49 SSE 1000,0 7 0,0
15.01.2018 15:00:00 1,3 -1,3 73 40 93 50 SSE 1001,4 8 0,0
15.01.2018 14:00:00 1,3 -1,3 72 39 90 49 SSE 1003,6 8 0,0
15.01.2018 13:00:00 1,4 -1,0 69 38 90 49 SSE 1005,3 7 0,0
15.01.2018 12:00:00 1,4 -1,7 71 38 92 50 SSE 1007,1 8 0,0
15.01.2018 11:00:00 1,2 -1,7 74 40 94 51 SSE 1008,5 7 0,0
15.01.2018 10:00:00 1,2 -1,9 73 39 97 52 SSE 1009,9 8 0,0
15.01.2018 09:00:00 1,6 -1,5 71 38 86 47 SSE 1010,8 8 0,0
15.01.2018 08:00:00 1,5 -1,6 64 34 80 43 SSE 1012,1 8 0,0
15.01.2018 07:00:00 1,1 -1,3 66 36 83 45 SSE 1012,8 9 0,0
15.01.2018 06:00:00 0,8 -1,3 61 33 80 43 SSE 1014,3 9 0,0
15.01.2018 05:00:00 0,7 -2,2 60 32 76 41 SSE 1016,2 12 0,0
15.01.2018 04:00:00 -0,2 -2,6 46 25 69 37 SSE 1018,4 11 0,0
15.01.2018 03:00:00 -0,3 -2,7 47 25 74 40 SE 1019,9 11 0,0
15.01.2018 02:00:00 -0,1 -3,0 53 29 66 36 SSE 1020,5 12 0,0
15.01.2018 01:00:00 -0,7 -3,7 53 29 67 36 SSE 1021,8 12 0,0
15.01.2018 00:00:00 -0,3 -3,2 53 28 69 37 SSE 1022,7 12 0,0
14.01.2018 23:00:00 -0,3 -3,3 50 27 64 35 SSE 1023,9 14 0,0
14.01.2018 22:00:00 -0,2 -3,2 48 26 60 33 SSE 1024,1 16 0,0
14.01.2018 21:00:00 -0,1 -3,3 49 26 62 34 SE 1024,9 17 0,0
14.01.2018 20:00:00 0,5 -3,2 49 27 60 32 SSE 1025,4 16 0,0
14.01.2018 19:00:00 -0,1 -4,0 46 25 58 31 SE 1025,9 21 0,0
14.01.2018 18:00:00 -0,2 -4,5 40 22 55 30 SE 1027,3 19 0,0
14.01.2018 17:00:00 0,5 -3,6 40 22 54 29 SSE 1027,9 16 0,0
14.01.2018 16:00:00 0,4 -3,9 41 22 55 30 SSE 1028,6 18 0,0
14.01.2018 15:00:00 0,3 -4,3 40 22 52 28 SSE 1029,0 18 0,0
14.01.2018 14:00:00 0,4 -4,1 37 20 49 26 SSE 1029,4 20 0,0
14.01.2018 13:00:00 0,4 -4,4 39 21 49 27 SSE 1029,9 26 0,0
14.01.2018 12:00:00 0,3 -4,7 35 19 47 26 SSE 1030,9 25 0,0
14.01.2018 11:00:00 0,2 -4,4 29 16 40 22 SE 1031,7 39 0,0
14.01.2018 10:00:00 -0,2 -5,2 25 14 34 19 ESE 1031,9 50 0,0
14.01.2018 09:00:00 -0,4 -5,6 25 14 39 21 SE 1032,4 50 0,0
14.01.2018 08:00:00 -0,4 -5,8 26 14 35 19 SE 1032,4 50 0,0
14.01.2018 07:00:00 -0,4 -5,8 26 14 35 19 ESE 1032,8 50 0,0
14.01.2018 06:00:00 -0,5 -5,9 22 12 31 17 ESE 1033,4 50 0,0
14.01.2018 05:00:00 -0,5 -5,7 19 10 34 18 SE 1033,9 50 0,0
14.01.2018 04:00:00 -0,4 -6,2 26 14 34 18 SE 1033,9 50 0,0
14.01.2018 03:00:00 -0,4 -6,0 20 11 34 18 SE 1034,3 50 0,0
14.01.2018 02:00:00 -0,5 -5,7 21 11 32 17 ESE 1034,8 42 0,0
14.01.2018 01:00:00 -0,4 -5,2 22 12 31 17 ESE 1035,1 46 0,0
14.01.2018 00:00:00 -0,4 -5,0 21 12 34 19 ESE 1035,4 49 0,0
13.01.2018 23:00:00 -0,4 -5,0 24 13 36 19 ESE 1035,5 45 0,0

tt = Température de l'air
td = dewpoint
ff = Vitesse du vent
fx = gusts
dd = Direction du vent
ppp = reduced air pressure
vv = visibility
rr = Quantités de précipitations

stations d'obs. à proximité